TimeEST,TemperatureF,Dew PointF,Humidity,Sea Level PressureIn,VisibilityMPH,Wind Direction,Wind SpeedMPH,Gust SpeedMPH,PrecipitationIn,Events,Conditions,WindDirDegrees,DateUTC
12:00 AM,5.0,1.4,85,30.24,25.0,Calm,Calm,-,N/A,,Clear,0,2012-02-05 05:00:00
1:00 AM,3.2,1.4,92,30.24,25.0,Calm,Calm,-,N/A,,Clear,0,2012-02-05 06:00:00
2:00 AM,3.2,-0.4,85,30.24,25.0,Calm,Calm,-,N/A,,Clear,0,2012-02-05 07:00:00
3:00 AM,3.2,-0.4,85,30.24,25.0,North,2.3,-,N/A,,Clear,350,2012-02-05 08:00:00
4:00 AM,-2.2,-7.6,78,30.24,25.0,WNW,2.3,-,N/A,,Clear,290,2012-02-05 09:00:00
5:00 AM,-2.2,-5.8,85,30.27,25.0,NNW,3.5,-,N/A,,Partly Cloudy,330,2012-02-05 10:00:00
6:00 AM,-0.4,-4.0,85,30.26,25.0,NNE,2.3,-,N/A,,Partly Cloudy,30,2012-02-05 11:00:00
7:00 AM,-2.2,-5.8,85,30.25,25.0,West,2.3,-,N/A,,Partly Cloudy,260,2012-02-05 12:00:00
8:00 AM,-4.0,-7.6,85,30.27,25.0,Calm,Calm,-,N/A,,Partly Cloudy,0,2012-02-05 13:00:00
9:00 AM,3.2,1.4,92,30.25,25.0,SSW,2.3,-,N/A,,Partly Cloudy,200,2012-02-05 14:00:00
10:00 AM,10.4,6.8,85,30.25,25.0,Calm,Calm,-,N/A,,Mostly Cloudy,0,2012-02-05 15:00:00
10:15 AM,10.4,6.8,85,-9999,25.0,Calm,Calm,-,N/A,Snow,Light Snow,0,2012-02-05 15:15:00
11:00 AM,12.2,8.6,85,30.25,25.0,SW,9.2,-,N/A,Snow,Light Snow,220,2012-02-05 16:00:00
12:00 PM,15.8,8.6,73,30.21,25.0,SW,9.2,-,N/A,,Partly Cloudy,220,2012-02-05 17:00:00
1:00 PM,17.6,8.6,68,30.18,25.0,WSW,12.7,-,N/A,,Mostly Cloudy,240,2012-02-05 18:00:00
2:00 PM,19.4,12.2,74,30.15,25.0,WSW,9.2,17.3,N/A,,Mostly Cloudy,240,2012-02-05 19:00:00
3:00 PM,21.2,12.2,68,30.13,25.0,WSW,9.2,-,N/A,,Overcast,240,2012-02-05 20:00:00
4:00 PM,21.2,12.2,68,30.12,25.0,WSW,6.9,-,N/A,,Overcast,240,2012-02-05 21:00:00
5:00 PM,21.2,12.2,68,30.09,25.0,SW,6.9,-,N/A,,Overcast,230,2012-02-05 22:00:00
6:00 PM,21.2,14.0,74,30.08,25.0,SW,4.6,-,N/A,,Overcast,230,2012-02-05 23:00:00
7:00 PM,21.2,14.0,74,30.07,25.0,WSW,5.8,-,N/A,,Overcast,250,2012-02-06 00:00:00
8:00 PM,21.2,14.0,74,30.04,25.0,SW,5.8,-,N/A,,Overcast,230,2012-02-06 01:00:00
9:00 PM,24.8,17.6,74,30.01,25.0,WSW,9.2,-,N/A,,Overcast,240,2012-02-06 02:00:00
10:00 PM,24.8,19.4,80,29.98,25.0,WSW,6.9,-,N/A,,Overcast,240,2012-02-06 03:00:00
11:00 PM,26.6,21.2,80,29.94,25.0,SW,10.4,-,N/A,,Overcast,230,2012-02-06 04:00:00